Hourly Data Report for June 02, 2018

TORONTO CITY
ONTARIO
Current Station Operator: ECCC - MSC

43°40'00.000" N
79°24'00.000" W
112.50 m
6158355
71508
XTO

Download Data

Hourly Data (June 2018)
Hourly Data Report for June 2, 2018
TIME
LST
Temp Definition
°C
Dew Point Definition
°C
Rel Hum Definition
%
Precip. Amount Definition
mm

Wind Dir Definition
10's deg

Wind Spd Definition
km/h
Visibility Definition
km
Stn Press Definition
kPa
Hmdx Definition


Wind Chill Definition


Weather Definition


00:00 18.0 12.5 70 0.0 LegendMM LegendMM   99.85     LegendNANA
01:00 17.4 12.0 70 0.0 LegendMM LegendMM   99.88     LegendNANA
02:00 16.6 11.1 70 0.0 LegendMM LegendMM   99.89     LegendNANA
03:00 15.8 10.9 73 0.0 LegendMM LegendMM   99.92     LegendNANA
04:00 15.8 10.9 72 0.0 LegendMM LegendMM   99.94     LegendNANA
05:00 15.6 10.0 69 0.0 LegendMM LegendMM   100.05     LegendNANA
06:00 15.2 9.9 71 0.0 LegendMM LegendMM   100.13     LegendNANA
07:00 14.3 9.2 71 0.0 LegendMM LegendMM   100.20     LegendNANA
08:00 14.6 8.7 67 0.0 LegendMM LegendMM   100.20     LegendNANA
09:00 15.6 9.0 65 0.0 LegendMM LegendMM   100.19     LegendNANA
10:00 16.3 8.7 61 0.0 LegendMM LegendMM   100.17     LegendNANA
11:00 18.0 10.2 60 0.0 LegendMM LegendMM   100.16     LegendNANA
12:00 17.0 9.2 60 0.0 LegendMM LegendMM   100.17     LegendNANA
13:00 18.4 9.5 56 0.0 LegendMM LegendMM   100.17     LegendNANA
14:00 19.7 9.6 52 0.0 LegendMM LegendMM   100.17     LegendNANA
15:00 20.2 10.7 55 0.0 LegendMM LegendMM   100.14     LegendNANA
16:00 18.4 9.9 58 0.0 LegendMM LegendMM   100.12     LegendNANA
17:00 18.2 10.4 60 0.0 LegendMM LegendMM   100.06     LegendNANA
18:00 18.0 10.0 60 0.0 LegendMM LegendMM   100.04     LegendNANA
19:00 17.6 9.8 60 0.0 LegendMM LegendMM   100.03     LegendNANA
20:00 17.6 10.1 62 0.0 LegendMM LegendMM   100.03     LegendNANA
21:00 17.5 10.1 62 0.0 LegendMM LegendMM   100.06     LegendNANA
22:00 17.5 10.2 62 0.0 LegendMM LegendMM   100.08     LegendNANA
23:00 16.9 10.3 65 0.0 LegendMM LegendMM   100.10     LegendNANA

Notes on Data Quality.

Legend

  • E = Estimated
  • M = Missing
  • NA = Not Available*
  • [empty] = Indicates an unobserved value
Date modified: